[[{"header":{"parameterUnit":"m.s-1","parameterCategory":2,"la1":30.2991,"la2":30.254,"lo1":-89.0895,"lo2":-89.0444,"dy":0.0017,"dx":0.0017,"nx":28,"ny":28,"refTime":"2024-10-17T03:00:00:Z","depth":"0","parameterNumber":2,"parameterNumberName":"U-component_of_CURRENTS"},"data":[0,0,0,0,0,0,0,0,0,0,0,0,0,0,0,0,0,0,0,0,0,0,0,0,0,0,0,0,0,0,0,0,0,0,0,0,0,0,0,0,0,0,0,0,0,0,0,0,0,0,0,0,0,0,0,0,0,0,-0.2323,-0.2323,0,-0.2341,-0.2341,-0.2341,-0.2301,-0.23,-0.2299,-0.2298,-0.2255,-0.2255,-0.2255,0,0,0,0,0,0,0,0,0,0,0,0,0,-0.2247,-0.2248,-0.2323,-0.2323,-0.2324,-0.2341,-0.2341,-0.2341,-0.2301,-0.23,-0.2298,-0.2297,-0.2255,-0.2255,-0.2255,0,0,0,0,0,0,0,0,0,0,0,0,0,-0.2271,-0.2249,-0.2323,-0.2308,-0.2307,-0.2341,-0.2341,-0.2341,-0.2301,-0.23,-0.2298,-0.2297,-0.2255,-0.2255,-0.2255,-0.2285,0,0,-0.2254,-0.2254,0,0,0,0,0,0,0,0,-0.227,-0.2274,-0.2309,-0.2309,-0.2308,-0.2319,-0.2298,-0.232,-0.2302,-0.2301,-0.2298,-0.2296,-0.2274,-0.2272,-0.2276,-0.2283,-0.2281,-0.2254,-0.2254,-0.2254,-0.2254,0,0,0,0,0,0,0,-0.2268,-0.2273,-0.2327,-0.231,-0.2309,-0.2298,-0.2299,-0.2302,-0.2293,-0.2301,-0.2298,-0.2305,-0.2272,-0.2276,-0.2274,-0.228,-0.2254,-0.2254,-0.2253,-0.2253,-0.2294,-0.2295,0,0,0,0,0,0,-0.2274,-0.2272,-0.2327,-0.2328,-0.2287,-0.2301,-0.2302,-0.2315,-0.2294,-0.229,-0.2306,-0.2303,-0.2277,-0.2275,-0.2273,-0.2304,-0.2254,-0.2253,-0.2253,-0.2293,-0.2294,-0.2295,0,0,0,0,0,0,-0.2272,-0.2279,-0.2326,-0.2301,-0.2307,-0.2304,-0.2318,-0.2316,-0.2314,-0.2299,-0.2294,-0.2306,-0.2276,-0.2273,-0.2278,-0.2302,-0.2253,-0.2253,-0.2291,-0.2293,-0.2295,-0.2368,0,0,0,0,0,0,-0.227,-0.2278,-0.2286,-0.2302,-0.2309,-0.2354,-0.232,-0.2318,-0.2323,-0.2318,-0.2298,-0.2292,-0.2275,-0.2279,-0.2278,-0.2301,-0.2253,-0.229,-0.2292,-0.2294,-0.2364,-0.2372,-0.2379,0,0,0,0,0,-0.2267,-0.2289,-0.2286,-0.2293,-0.2321,-0.2356,-0.2358,-0.2348,-0.2324,-0.2337,-0.2318,-0.2293,-0.2292,-0.228,-0.2279,-0.2302,-0.2288,-0.2291,-0.2294,-0.2361,-0.2371,-0.2379,0,0,0,0,0,0,-0.2258,-0.2288,-0.2285,-0.2313,-0.2335,-0.235,-0.2359,-0.2353,-0.235,-0.2338,-0.2312,-0.2307,-0.232,-0.2303,-0.229,-0.232,-0.2285,-0.2288,-0.2337,-0.2346,-0.2353,-0.2356,-0.2253,0,0,0,0,0,-0.2263,-0.2283,-0.2312,-0.2332,-0.2346,-0.2352,-0.2361,-0.236,-0.2363,-0.2359,-0.2346,-0.2333,-0.2335,-0.2332,-0.233,-0.235,-0.2339,-0.2362,-0.237,-0.2376,-0.2379,-0.2391,-0.2399,-0.2304,-0.2304,-0.2304,0,0,-0.2263,-0.2282,-0.2292,-0.2331,-0.2342,-0.2376,-0.2353,-0.2376,-0.2398,-0.2356,-0.2372,-0.236,-0.2346,-0.2367,-0.2371,-0.2353,-0.24,-0.238,-0.2386,-0.2384,-0.2394,-0.2404,-0.2412,-0.2306,-0.2306,-0.2306,0,0,-0.2282,-0.2295,-0.232,-0.2347,-0.2377,-0.239,-0.2399,-0.2421,-0.2422,-0.2445,-0.2419,-0.2425,-0.2422,-0.2424,-0.2422,-0.2472,-0.244,-0.2465,-0.2506,-0.2518,-0.2526,-0.2533,-0.254,-0.2546,-0.2468,-0.2468,-0.2468,0,-0.2278,-0.2318,-0.2333,-0.2371,-0.2394,-0.2399,-0.2437,-0.2452,-0.2469,-0.248,-0.2456,-0.2469,-0.2455,-0.2486,-0.2497,-0.2491,-0.2484,-0.2473,-0.2528,-0.2534,-0.254,-0.2545,-0.2552,-0.2472,-0.2471,-0.2471,-0.247,0,-0.2321,-0.2353,-0.2373,-0.242,-0.2451,-0.2484,-0.2515,-0.2537,-0.2535,-0.2546,-0.2572,-0.256,-0.2562,-0.2565,-0.2542,-0.258,-0.2558,-0.2538,-0.2506,-0.2554,-0.2557,-0.2562,-0.2477,-0.2476,-0.2475,-0.2474,0,0,-0.2304,-0.2386,-0.239,-0.2422,-0.248,-0.2509,-0.2558,-0.2605,-0.2631,-0.2642,-0.2675,-0.2679,-0.2661,-0.2657,-0.2637,-0.2646,-0.2681,-0.2606,-0.2605,-0.2614,-0.2702,-0.2658,-0.2659,-0.2665,-0.2667,-0.2668,-0.2691,0,-0.2327,-0.24,-0.2439,-0.2505,-0.2544,-0.258,-0.2627,-0.2668,-0.2689,-0.2724,-0.2723,-0.274,-0.2701,-0.2698,-0.2705,-0.2684,-0.2697,-0.2676,-0.2652,-0.2652,-0.2608,-0.2665,-0.2565,-0.2574,-0.2696,-0.2697,-0.2698,0,-0.2348,-0.2397,-0.2465,-0.255,-0.257,-0.2608,-0.2678,-0.2722,-0.2777,-0.2793,-0.2814,-0.2808,-0.2825,-0.278,-0.2781,-0.2765,-0.2739,-0.2723,-0.2724,-0.2658,-0.2618,-0.2544,-0.2579,-0.2556,-0.2705,-0.2705,-0.2704,0,-0.2315,-0.241,-0.2462,-0.2491,-0.2589,-0.2621,-0.2665,-0.2731,-0.2766,-0.2827,-0.285,-0.2875,-0.2873,-0.2861,-0.2816,-0.2799,-0.2813,-0.2787,-0.2732,-0.2728,-0.2626,-0.2611,-0.2635,-0.2798,-0.2797,-0.2797,-0.2797,0,-0.2318,-0.2356,-0.2447,-0.2474,-0.2528,-0.2604,-0.266,-0.271,-0.2781,-0.2826,-0.2865,-0.2893,-0.2889,-0.289,-0.2852,-0.2807,-0.2841,-0.2751,-0.2737,-0.2649,-0.2637,-0.2596,-0.26,-0.2798,-0.2798,-0.2798,-0.2798,0,-0.2262,-0.2331,-0.2384,-0.2482,-0.251,-0.2538,-0.2633,-0.2673,-0.2753,-0.2812,-0.283,-0.29,-0.2911,-0.2905,-0.2891,-0.2841,-0.2765,-0.2788,-0.2684,-0.2657,-0.2575,-0.2586,-0.2566,-0.2495,-0.2739,-0.2738,-0.2738,0,-0.2238,-0.226,-0.2352,-0.2375,-0.2411,-0.2473,-0.2516,-0.2626,-0.2675,-0.2806,-0.2826,-0.288,-0.2897,-0.2879,-0.2825,-0.2781,-0.2736,-0.2649,-0.2601,-0.2571,-0.2574,-0.2558,-0.2498,-0.2499,-0.2496,-0.2494,-0.2492,0,-0.2168,-0.2194,-0.2234,-0.2279,-0.2322,-0.238,-0.2454,-0.2491,-0.2629,-0.2688,-0.2762,-0.2795,-0.2829,-0.2757,-0.2718,-0.2661,-0.2579,-0.2603,-0.2598,-0.2416,-0.2374,-0.2297,-0.2488,-0.2473,-0.2475,-0.2477,-0.2478,-0.2478,-0.2086,-0.2086,-0.2128,-0.2159,-0.2209,-0.2248,-0.2251,-0.2355,-0.241,-0.2486,-0.2618,-0.2654,-0.2663,-0.2602,-0.2555,-0.2438,-0.2464,-0.2348,-0.2374,-0.2369,-0.2271,-0.2424,-0.2376,-0.2377,-0.2378,-0.2379,-0.238,0,-0.1971,-0.1984,-0.2007,-0.2036,-0.2032,-0.2107,-0.2175,-0.2158,-0.2175,-0.2315,-0.2369,-0.2454,-0.239,-0.2403,-0.2327,-0.2232,-0.2155,-0.217,-0.2124,-0.2078,-0.223,-0.2189,-0.2066,-0.2066,-0.2066,-0.2066,-0.2066,-0.2066,-0.1911,-0.1884,-0.1897,-0.1841,-0.1859,-0.181,-0.1814,-0.1818,-0.1881,-0.1946,-0.2064,-0.2211,-0.2244,-0.2359,-0.2237,-0.2129,-0.2051,-0.199,-0.2008,-0.2126,-0.2144,-0.2162,-0.2124,-0.1989,-0.1989,-0.1768,-0.1767,-0.1766]},{"header":{"parameterUnit":"m.s-1","parameterCategory":2,"la1":30.2991,"la2":30.254,"lo1":-89.0895,"lo2":-89.0444,"dy":0.0017,"dx":0.0017,"nx":28,"ny":28,"refTime":"2024-10-17T03:00:00:Z","depth":"0","parameterNumber":3,"parameterNumberName":"V-component_of_CURRENTS"},"data":[0,0,0,0,0,0,0,0,0,0,0,0,0,0,0,0,0,0,0,0,0,0,0,0,0,0,0,0,0,0,0,0,0,0,0,0,0,0,0,0,0,0,0,0,0,0,0,0,0,0,0,0,0,0,0,0,0,0,-0.0249,-0.0248,0,-0.0171,-0.017,-0.0169,-0.0116,-0.0116,-0.0116,-0.0116,-0.0018,-0.0016,-0.0014,0,0,0,0,0,0,0,0,0,0,0,0,0,-0.03,-0.0299,-0.0249,-0.0248,-0.0247,-0.0171,-0.017,-0.0169,-0.0116,-0.0116,-0.0116,-0.0116,-0.0019,-0.0016,-0.0013,0,0,0,0,0,0,0,0,0,0,0,0,0,-0.0254,-0.0299,-0.0249,-0.0213,-0.0209,-0.0171,-0.017,-0.0168,-0.0116,-0.0116,-0.0116,-0.0115,-0.002,-0.0016,-0.0013,0.0003,0,0,-0.0002,-0.0,0,0,0,0,0,0,0,0,-0.0257,-0.0252,-0.0219,-0.0215,-0.0211,-0.0155,-0.0152,-0.0111,-0.0117,-0.015,-0.0116,-0.0115,-0.0063,-0.0056,-0.004,0.0007,0.0012,-0.0002,0.0001,0.0002,0.0003,0,0,0,0,0,0,0,-0.026,-0.0255,-0.0216,-0.0218,-0.0213,-0.0183,-0.0177,-0.0144,-0.0108,-0.0147,-0.0143,-0.0138,-0.0061,-0.0044,-0.0037,0.0013,-0.0002,0.0001,0.0004,0.0005,0.0095,0.0096,0,0,0,0,0,0,-0.0276,-0.0258,-0.0219,-0.0214,-0.0235,-0.0183,-0.0175,-0.0172,-0.0108,-0.0099,-0.0138,-0.0135,-0.005,-0.0042,-0.0034,-0.0009,0.0002,0.0005,0.0008,0.0095,0.0095,0.0096,0,0,0,0,0,0,-0.0277,-0.0273,-0.0222,-0.0235,-0.0227,-0.0183,-0.0179,-0.017,-0.0154,-0.0102,-0.0092,-0.0131,-0.0049,-0.0039,-0.0004,-0.0005,0.0007,0.001,0.0095,0.0095,0.0096,0.0038,0,0,0,0,0,0,-0.0279,-0.0274,-0.0279,-0.0237,-0.0227,-0.0207,-0.0179,-0.0169,-0.0152,-0.0148,-0.0093,-0.0083,-0.0048,-0.001,-0.0001,-0.0,0.0013,0.0095,0.0095,0.0095,0.004,0.0037,0.0034,0,0,0,0,0,-0.0281,-0.0293,-0.028,-0.0275,-0.0234,-0.0208,-0.02,-0.0166,-0.0153,-0.015,-0.0109,-0.0085,-0.0,-0.0007,0.0004,0.0005,0.0094,0.0095,0.0095,0.0041,0.0037,0.0034,0,0,0,0,0,0,-0.0319,-0.0287,-0.0272,-0.0274,-0.0246,-0.02,-0.0197,-0.0172,-0.0137,-0.0134,-0.0083,-0.007,-0.004,-0.0009,-0.0017,0.0034,0.0051,0.0054,0.0006,0.0003,0.0,-0.0019,0.0016,0,0,0,0,0,-0.033,-0.0329,-0.0292,-0.0294,-0.0283,-0.0241,-0.0227,-0.0204,-0.0168,-0.0152,-0.0111,-0.0068,-0.0029,-0.0008,0.003,0.0056,0.0091,0.0065,0.0062,0.0059,0.0052,0.0108,0.0109,0.0098,0.0098,0.0098,0,0,-0.0345,-0.0328,-0.0328,-0.0302,-0.0277,-0.027,-0.0231,-0.0217,-0.0206,-0.0147,-0.0122,-0.0079,-0.0024,0.0007,0.0023,0.0032,0.0082,0.006,0.0057,0.0051,0.0109,0.011,0.0111,0.0098,0.0098,0.0098,0,0,-0.0381,-0.0361,-0.0374,-0.0355,-0.0327,-0.0298,-0.0297,-0.0254,-0.0229,-0.02,-0.0152,-0.011,-0.0056,-0.0012,0.0016,0.002,0.0063,0.0031,0.0001,0.0056,0.0057,0.0058,0.0104,0.011,0.003,0.003,0.003,0,-0.0403,-0.0411,-0.0374,-0.038,-0.037,-0.0315,-0.0325,-0.029,-0.024,-0.0218,-0.0202,-0.0108,-0.0064,-0.0014,-0.0013,0.0012,0.0046,0.0008,0.0051,0.0053,0.0055,0.0102,0.0109,0.0028,0.0028,0.0028,0.0028,0,-0.0444,-0.045,-0.0456,-0.0444,-0.0428,-0.0427,-0.0378,-0.0352,-0.0316,-0.0277,-0.0223,-0.0155,-0.0098,-0.0075,-0.0045,-0.0003,0.0016,0.0038,0.0055,0.0053,0.0103,0.0111,0.0024,0.0025,0.0025,0.0026,0,0,-0.0493,-0.0489,-0.0491,-0.0501,-0.0463,-0.0457,-0.0432,-0.0393,-0.0375,-0.0314,-0.0283,-0.0208,-0.0163,-0.0128,-0.0074,-0.0029,0.0019,0.0003,0.0007,0.0039,0.0133,0.0185,0.02,0.0047,0.0048,0.0049,0.016,0,-0.0537,-0.0576,-0.055,-0.0576,-0.0591,-0.0532,-0.0514,-0.0467,-0.0413,-0.0366,-0.0279,-0.0232,-0.0184,-0.0156,-0.0101,-0.0009,0.0039,-0.0013,0.0138,0.0142,0.0182,0.0211,0.0243,0.0348,0.0169,0.017,0.0171,0,-0.0584,-0.0605,-0.0646,-0.0648,-0.0647,-0.0645,-0.0604,-0.0579,-0.049,-0.0446,-0.0372,-0.03,-0.0213,-0.0178,-0.0022,-0.0059,0.0026,0.0096,0.0102,0.0175,0.0211,0.0323,0.0371,0.0529,0.0185,0.0184,0.0183,0,-0.0645,-0.0669,-0.0707,-0.0708,-0.0697,-0.0695,-0.0678,-0.0606,-0.0586,-0.0493,-0.0463,-0.0344,-0.0281,-0.016,-0.0003,-0.0015,0.0167,0.0175,0.0303,0.0308,0.0378,0.0387,0.0589,0.0277,0.0277,0.0277,0.0277,0,-0.0704,-0.0733,-0.0742,-0.0765,-0.08,-0.0762,-0.077,-0.0725,-0.0662,-0.0638,-0.0512,-0.0457,-0.0276,-0.0142,-0.0012,0.0184,0.017,0.0306,0.0346,0.0359,0.0365,0.054,0.0589,0.0281,0.028,0.0279,0.0279,0,-0.0762,-0.0768,-0.0817,-0.0829,-0.0834,-0.0857,-0.0848,-0.0848,-0.0771,-0.0731,-0.0706,-0.0539,-0.0354,-0.0159,0.0054,0.0178,0.0452,0.0421,0.0423,0.0462,0.0716,0.0759,0.0981,0.1054,0.0575,0.0577,0.0579,0,-0.0797,-0.0828,-0.0874,-0.0911,-0.092,-0.0947,-0.0963,-0.0911,-0.0903,-0.0776,-0.0762,-0.0571,-0.042,-0.007,0.0187,0.0448,0.0551,0.0619,0.0606,0.075,0.0828,0.0855,0.0901,0.0676,0.0678,0.068,0.0682,0,-0.0859,-0.0872,-0.0913,-0.0993,-0.1033,-0.1073,-0.1086,-0.1098,-0.102,-0.0959,-0.0838,-0.0703,-0.0334,-0.0003,0.0355,0.051,0.0733,0.0666,0.0826,0.0935,0.097,0.1052,0.0575,0.0699,0.0698,0.0696,0.0695,0.0695,-0.0893,-0.0942,-0.1,-0.1071,-0.1127,-0.1182,-0.1211,-0.1202,-0.1177,-0.1064,-0.0916,-0.0679,-0.0173,0.0348,0.0536,0.0948,0.0893,0.1058,0.1102,0.1119,0.1189,0.0747,0.0909,0.0908,0.0908,0.0907,0.0907,0,-0.0937,-0.0994,-0.1074,-0.1158,-0.1233,-0.1239,-0.128,-0.1285,-0.1256,-0.1103,-0.0951,-0.04,0.0102,0.0565,0.1156,0.1373,0.1402,0.1477,0.1529,0.1555,0.1187,0.1193,0.1412,0.1411,0.1411,0.1411,0.1411,0.1411,-0.0962,-0.1048,-0.1095,-0.1226,-0.1286,-0.1361,-0.1384,-0.1363,-0.1272,-0.1016,-0.0714,-0.0467,0.0237,0.1205,0.1751,0.1794,0.1944,0.1937,0.2014,0.1769,0.1733,0.1699,0.1719,0.2045,0.2046,0.2367,0.237,0.2372]}],[{"header":{"parameterUnit":"m.s-1","parameterCategory":2,"la1":30.2991,"la2":30.254,"lo1":-89.0895,"lo2":-89.0444,"dy":0.0017,"dx":0.0017,"nx":28,"ny":28,"refTime":"2024-10-17T03:00:00:Z","depth":"2","parameterNumber":2,"parameterNumberName":"U-component_of_CURRENTS"},"data":[0,0,0,0,0,0,0,0,0,0,0,0,0,0,0,0,0,0,0,0,0,0,0,0,0,0,0,0,0,0,0,0,0,0,0,0,0,0,0,0,0,0,0,0,0,0,0,0,0,0,0,0,0,0,0,0,0,0,-0.2093,-0.2093,0,-0.211,-0.211,-0.211,-0.2079,-0.2079,-0.2078,-0.2077,-0.2043,-0.2043,-0.2042,0,0,0,0,0,0,0,0,0,0,0,0,0,-0.2025,-0.2026,-0.2093,-0.2093,-0.2094,-0.211,-0.211,-0.211,-0.208,-0.2079,-0.2078,-0.2077,-0.2043,-0.2043,-0.2042,0,0,0,0,0,0,0,0,0,0,0,0,0,-0.2047,-0.2026,-0.2093,-0.2082,-0.2082,-0.211,-0.211,-0.211,-0.208,-0.2079,-0.2077,-0.2076,-0.2043,-0.2043,-0.2042,-0.2065,0,0,-0.2042,-0.2041,0,0,0,0,0,0,0,0,-0.2046,-0.2049,-0.2083,-0.2083,-0.2082,-0.2093,-0.2074,-0.2093,-0.208,-0.2078,-0.2077,-0.2076,-0.2057,-0.2056,-0.2059,-0.2063,-0.2062,-0.2042,-0.2041,-0.2041,-0.2041,0,0,0,0,0,0,0,-0.2044,-0.2048,-0.2097,-0.2084,-0.2084,-0.2074,-0.2076,-0.2077,-0.2071,-0.2078,-0.2076,-0.2083,-0.2056,-0.2059,-0.2058,-0.2061,-0.2042,-0.2041,-0.2041,-0.2041,-0.208,-0.2081,0,0,0,0,0,0,-0.2049,-0.2047,-0.2097,-0.2098,-0.2064,-0.2076,-0.2078,-0.2089,-0.2072,-0.207,-0.2084,-0.2081,-0.206,-0.2058,-0.2057,-0.209,-0.2041,-0.2041,-0.2041,-0.2078,-0.208,-0.2081,0,0,0,0,0,0,-0.2048,-0.2054,-0.2096,-0.2074,-0.2079,-0.2079,-0.2092,-0.209,-0.2092,-0.2078,-0.2073,-0.2087,-0.2059,-0.2057,-0.2064,-0.2088,-0.2041,-0.2041,-0.2077,-0.2079,-0.208,-0.2152,0,0,0,0,0,0,-0.2046,-0.2053,-0.2061,-0.2075,-0.2081,-0.2122,-0.2093,-0.2091,-0.2099,-0.2096,-0.2079,-0.2075,-0.2058,-0.2065,-0.2064,-0.2087,-0.2041,-0.2076,-0.2078,-0.208,-0.2148,-0.2156,-0.2163,0,0,0,0,0,-0.2044,-0.2063,-0.2061,-0.2067,-0.2092,-0.2123,-0.2126,-0.2119,-0.21,-0.2113,-0.2099,-0.2075,-0.2078,-0.2066,-0.2064,-0.2088,-0.2074,-0.2077,-0.208,-0.2145,-0.2155,-0.2163,0,0,0,0,0,0,-0.2037,-0.2062,-0.2061,-0.2086,-0.2107,-0.2119,-0.2129,-0.2125,-0.2125,-0.2116,-0.2093,-0.2089,-0.2104,-0.2088,-0.2075,-0.2105,-0.2072,-0.2074,-0.2122,-0.2131,-0.2138,-0.214,-0.204,0,0,0,0,0,-0.2041,-0.2059,-0.2084,-0.2103,-0.2116,-0.2123,-0.2132,-0.2133,-0.2137,-0.2134,-0.2125,-0.2115,-0.2117,-0.2116,-0.2114,-0.2133,-0.2122,-0.2146,-0.2154,-0.216,-0.2161,-0.2173,-0.2181,-0.209,-0.209,-0.209,0,0,-0.2042,-0.2059,-0.2068,-0.2102,-0.2114,-0.2144,-0.2125,-0.2148,-0.2169,-0.2132,-0.2151,-0.2141,-0.2127,-0.2148,-0.2153,-0.2136,-0.2183,-0.2163,-0.2169,-0.2167,-0.2177,-0.2185,-0.2193,-0.2092,-0.2091,-0.2091,0,0,-0.2059,-0.2072,-0.2094,-0.2119,-0.2148,-0.2159,-0.2169,-0.219,-0.2194,-0.2218,-0.2196,-0.2204,-0.2203,-0.2205,-0.2202,-0.225,-0.2221,-0.2245,-0.2285,-0.2297,-0.2304,-0.2311,-0.2319,-0.2325,-0.2249,-0.2249,-0.2249,0,-0.2058,-0.2092,-0.2106,-0.214,-0.2162,-0.2169,-0.2204,-0.2219,-0.2238,-0.225,-0.2231,-0.2246,-0.2233,-0.2262,-0.2274,-0.2268,-0.2263,-0.2253,-0.2307,-0.2313,-0.2318,-0.2324,-0.2331,-0.2253,-0.2252,-0.2252,-0.2251,0,-0.2095,-0.2125,-0.2143,-0.2186,-0.2214,-0.2246,-0.2275,-0.2298,-0.2301,-0.2313,-0.2341,-0.2331,-0.2335,-0.2339,-0.2317,-0.2354,-0.2336,-0.2316,-0.2285,-0.2332,-0.2335,-0.2341,-0.2258,-0.2257,-0.2256,-0.2255,0,0,-0.2083,-0.2154,-0.2159,-0.2187,-0.2241,-0.2268,-0.2315,-0.236,-0.2386,-0.2401,-0.2436,-0.2441,-0.2428,-0.2424,-0.2407,-0.2417,-0.2453,-0.2381,-0.238,-0.239,-0.2476,-0.2428,-0.2429,-0.2439,-0.244,-0.2441,-0.2466,0,-0.2104,-0.2168,-0.2203,-0.2263,-0.2298,-0.2333,-0.2378,-0.2418,-0.2441,-0.2477,-0.2479,-0.2499,-0.2464,-0.2465,-0.2472,-0.2454,-0.2468,-0.2447,-0.2427,-0.2427,-0.2379,-0.2434,-0.2238,-0.2241,-0.2471,-0.2472,-0.2473,0,-0.2123,-0.2165,-0.2227,-0.2303,-0.2323,-0.2359,-0.2427,-0.2468,-0.2523,-0.2543,-0.2566,-0.2563,-0.2583,-0.2542,-0.2546,-0.2531,-0.2509,-0.2496,-0.2496,-0.2427,-0.2388,-0.2229,-0.2241,-0.2481,-0.248,-0.248,-0.2479,0,-0.2094,-0.2179,-0.2225,-0.2252,-0.234,-0.2373,-0.2415,-0.2479,-0.2514,-0.2577,-0.2601,-0.2628,-0.2631,-0.2621,-0.2582,-0.2566,-0.2582,-0.2557,-0.25,-0.2497,-0.2314,-0.2292,-0.2568,-0.2568,-0.2568,-0.2568,-0.2568,0,-0.2097,-0.2132,-0.2213,-0.2238,-0.2289,-0.2359,-0.2414,-0.2463,-0.2534,-0.2576,-0.2617,-0.2644,-0.2647,-0.265,-0.2616,-0.2573,-0.2608,-0.2518,-0.2505,-0.2334,-0.2315,-0.2503,-0.2495,-0.2569,-0.2568,-0.2568,-0.2568,0,-0.2048,-0.2109,-0.2157,-0.2247,-0.2273,-0.2301,-0.2392,-0.243,-0.2509,-0.2565,-0.2586,-0.2654,-0.2665,-0.2663,-0.2653,-0.2605,-0.2579,-0.2554,-0.2356,-0.2318,-0.248,-0.2475,-0.2504,-0.2503,-0.2502,-0.2501,-0.25,0,-0.2027,-0.2046,-0.2129,-0.215,-0.2185,-0.2244,-0.2283,-0.2389,-0.2434,-0.2559,-0.2576,-0.2632,-0.2641,-0.2625,-0.2568,-0.2524,-0.256,-0.231,-0.2249,-0.2492,-0.2476,-0.2473,-0.247,-0.2036,-0.2032,-0.2028,-0.2025,0,-0.1964,-0.1989,-0.2024,-0.2063,-0.2103,-0.2154,-0.2222,-0.2256,-0.2385,-0.2438,-0.2504,-0.253,-0.2554,-0.2428,-0.239,-0.2325,-0.2305,-0.2235,-0.2535,-0.209,-0.2055,-0.2038,-0.205,-0.1992,-0.1995,-0.1998,-0.1999,-0.2001,-0.1892,-0.189,-0.1926,-0.1952,-0.1998,-0.2028,-0.2026,-0.2117,-0.2163,-0.222,-0.2345,-0.2327,-0.2329,-0.2182,-0.2085,-0.2003,-0.2155,-0.2027,-0.2036,-0.205,-0.1999,-0.1964,-0.1875,-0.1877,-0.1879,-0.1881,-0.1883,0,-0.1786,-0.1795,-0.1813,-0.1835,-0.1827,-0.1899,-0.1952,-0.1924,-0.1928,-0.2025,-0.2062,-0.1893,-0.184,-0.1845,-0.169,-0.1663,-0.1618,-0.1568,-0.1503,-0.1537,-0.1568,-0.149,-0.1231,-0.1229,-0.1228,-0.1226,0,0,-0.1731,-0.1701,-0.1708,-0.1648,-0.1663,-0.1609,-0.1608,-0.1591,-0.1617,-0.158,-0.159,-0.1759,-0.181,-0.1529,-0.1457,-0.1325,-0.1408,-0.1252,-0.1776,-0.1734,-0.1762,-0.1836,-0.1756,0,0,0,0,0]},{"header":{"parameterUnit":"m.s-1","parameterCategory":2,"la1":30.2991,"la2":30.254,"lo1":-89.0895,"lo2":-89.0444,"dy":0.0017,"dx":0.0017,"nx":28,"ny":28,"refTime":"2024-10-17T03:00:00:Z","depth":"2","parameterNumber":3,"parameterNumberName":"V-component_of_CURRENTS"},"data":[0,0,0,0,0,0,0,0,0,0,0,0,0,0,0,0,0,0,0,0,0,0,0,0,0,0,0,0,0,0,0,0,0,0,0,0,0,0,0,0,0,0,0,0,0,0,0,0,0,0,0,0,0,0,0,0,0,0,-0.0172,-0.0172,0,-0.0102,-0.0101,-0.01,-0.0055,-0.0055,-0.0055,-0.0055,0.0034,0.0036,0.0039,0,0,0,0,0,0,0,0,0,0,0,0,0,-0.0217,-0.0216,-0.0172,-0.0171,-0.0171,-0.0102,-0.0101,-0.01,-0.0055,-0.0055,-0.0055,-0.0055,0.0034,0.0036,0.0039,0,0,0,0,0,0,0,0,0,0,0,0,0,-0.0176,-0.0216,-0.0172,-0.0141,-0.0138,-0.0103,-0.0101,-0.01,-0.0055,-0.0055,-0.0055,-0.0055,0.0033,0.0036,0.0039,0.0057,0,0,0.005,0.0051,0,0,0,0,0,0,0,0,-0.0178,-0.0174,-0.0147,-0.0144,-0.014,-0.0089,-0.0084,-0.0047,-0.0056,-0.0085,-0.0055,-0.0055,-0.0006,0.0,0.0015,0.0061,0.0065,0.005,0.0052,0.0054,0.0054,0,0,0,0,0,0,0,-0.0181,-0.0177,-0.0143,-0.0146,-0.0142,-0.0114,-0.0108,-0.0077,-0.0046,-0.0083,-0.008,-0.0074,-0.0004,0.0012,0.0018,0.0066,0.005,0.0053,0.0055,0.0056,0.0145,0.0145,0,0,0,0,0,0,-0.0196,-0.018,-0.0145,-0.0141,-0.0161,-0.0114,-0.0107,-0.0104,-0.0047,-0.0038,-0.0075,-0.0073,0.0006,0.0014,0.0021,0.0045,0.0053,0.0057,0.0059,0.0145,0.0145,0.0146,0,0,0,0,0,0,-0.0197,-0.0194,-0.0148,-0.016,-0.0152,-0.0114,-0.011,-0.0103,-0.0089,-0.0041,-0.0032,-0.0069,0.0006,0.0016,0.0049,0.0049,0.0058,0.0061,0.0144,0.0145,0.0145,0.0094,0,0,0,0,0,0,-0.0199,-0.0195,-0.0199,-0.0161,-0.0152,-0.0135,-0.011,-0.0102,-0.0087,-0.0084,-0.0034,-0.0025,0.0007,0.0043,0.0052,0.0054,0.0064,0.0144,0.0145,0.0145,0.0095,0.0092,0.009,0,0,0,0,0,-0.0201,-0.0211,-0.02,-0.0196,-0.0159,-0.0135,-0.0128,-0.0098,-0.0087,-0.0085,-0.0047,-0.0027,0.0054,0.0046,0.0057,0.0059,0.0144,0.0144,0.0145,0.0096,0.0093,0.009,0,0,0,0,0,0,-0.0235,-0.0207,-0.0194,-0.0195,-0.017,-0.0128,-0.0126,-0.0104,-0.0072,-0.007,-0.0023,-0.0012,0.0017,0.0046,0.0037,0.0088,0.0102,0.0105,0.0062,0.0059,0.0057,0.0038,0.0067,0,0,0,0,0,-0.0245,-0.0245,-0.0211,-0.0213,-0.0204,-0.0165,-0.0153,-0.0133,-0.01,-0.0086,-0.0048,-0.0008,0.0029,0.0049,0.0084,0.011,0.0143,0.012,0.0117,0.0115,0.0107,0.016,0.0162,0.0148,0.0148,0.0148,0,0,-0.0259,-0.0244,-0.0244,-0.022,-0.0199,-0.0192,-0.0157,-0.0145,-0.0134,-0.0081,-0.0057,-0.0017,0.0034,0.0064,0.008,0.0088,0.0137,0.0116,0.0113,0.0107,0.0161,0.0163,0.0164,0.0148,0.0148,0.0148,0,0,-0.0292,-0.0274,-0.0286,-0.0269,-0.0244,-0.0217,-0.0217,-0.0177,-0.0155,-0.0127,-0.0084,-0.0044,0.0007,0.0049,0.0076,0.0082,0.012,0.0092,0.0066,0.0117,0.0119,0.012,0.0162,0.0168,0.0092,0.0092,0.0092,0,-0.0312,-0.032,-0.0286,-0.0291,-0.0283,-0.0233,-0.0242,-0.021,-0.0163,-0.0144,-0.0129,-0.004,0.0001,0.0049,0.0051,0.0076,0.0106,0.007,0.0113,0.0115,0.0118,0.016,0.0167,0.009,0.009,0.009,0.0091,0,-0.0349,-0.0355,-0.0361,-0.035,-0.0334,-0.0334,-0.0288,-0.0265,-0.0233,-0.0196,-0.0145,-0.0081,-0.0028,-0.0005,0.0023,0.0064,0.008,0.0101,0.0115,0.0115,0.0161,0.0169,0.0086,0.0087,0.0088,0.0089,0,0,-0.0395,-0.0391,-0.0393,-0.0403,-0.0367,-0.0362,-0.0337,-0.0301,-0.0286,-0.0228,-0.02,-0.0127,-0.0087,-0.0054,-0.0002,0.0042,0.0087,0.007,0.0073,0.0102,0.0193,0.0234,0.0247,0.0113,0.0114,0.0115,0.0217,0,-0.0437,-0.0471,-0.0447,-0.0471,-0.0485,-0.0431,-0.0413,-0.037,-0.032,-0.0277,-0.0195,-0.0152,-0.0105,-0.008,-0.0026,0.006,0.0106,0.0057,0.0197,0.02,0.023,0.0258,0.0222,0.0312,0.0225,0.0227,0.0228,0,-0.0481,-0.05,-0.0537,-0.0539,-0.0538,-0.0537,-0.05,-0.0477,-0.0394,-0.0355,-0.0285,-0.0218,-0.0134,-0.0101,0.0048,0.0013,0.0092,0.0158,0.0164,0.0224,0.0257,0.03,0.033,0.0242,0.024,0.0239,0.0238,0,-0.054,-0.0561,-0.0596,-0.0597,-0.0586,-0.0586,-0.0571,-0.0504,-0.0486,-0.0401,-0.0374,-0.026,-0.0203,-0.0086,0.0062,0.0052,0.0222,0.0233,0.0346,0.0349,0.0358,0.036,0.0329,0.0329,0.0329,0.0328,0.0328,0,-0.0595,-0.0623,-0.0631,-0.0652,-0.0688,-0.0651,-0.0662,-0.062,-0.0563,-0.0542,-0.0423,-0.0374,-0.0199,-0.0074,0.0052,0.0233,0.0224,0.0347,0.0383,0.034,0.034,0.0307,0.0303,0.0332,0.0331,0.033,0.033,0,-0.0654,-0.0657,-0.0703,-0.0714,-0.072,-0.0744,-0.0738,-0.074,-0.0669,-0.0634,-0.0612,-0.0457,-0.0284,-0.0098,0.0105,0.0222,0.0387,0.0449,0.0384,0.0412,0.0477,0.0469,0.0582,0.0584,0.0586,0.0588,0.059,0,-0.0687,-0.0717,-0.076,-0.0796,-0.0805,-0.0833,-0.085,-0.0802,-0.0796,-0.0682,-0.067,-0.0495,-0.0356,-0.0028,0.0207,0.0453,0.0445,0.0553,0.0535,0.0481,0.0505,0.0494,0.0484,0.0524,0.0525,0.0526,0.0526,0,-0.0748,-0.0761,-0.0799,-0.0877,-0.0916,-0.0955,-0.097,-0.0982,-0.091,-0.0857,-0.0749,-0.0626,-0.029,-0.0013,0.0318,0.0453,0.0514,0.0575,0.055,0.0466,0.0435,0.0456,0.0447,0.0532,0.0531,0.0531,0.0531,0.053,-0.0785,-0.0831,-0.0885,-0.0954,-0.1008,-0.1061,-0.109,-0.1081,-0.1061,-0.0958,-0.0827,-0.0614,-0.0321,0.0146,0.0382,0.06,0.0598,0.0643,0.0637,0.0632,0.0607,0.0582,0.0701,0.0701,0.0701,0.0702,0.0702,0,-0.083,-0.0883,-0.0959,-0.1038,-0.1109,-0.1118,-0.1157,-0.1158,-0.1133,-0.0998,-0.0861,-0.0538,-0.0196,0.0107,0.0464,0.0679,0.0651,0.07,0.0619,0.0613,0.0608,0.0578,0.0667,0.0667,0.0668,0.0668,0,0,-0.0856,-0.0936,-0.0979,-0.1103,-0.1161,-0.1234,-0.1257,-0.123,-0.1146,-0.1016,-0.0846,-0.0592,-0.0203,0.0036,0.0313,0.0497,0.0489,0.0508,0.0515,0.038,0.0371,0.0559,0.0506,0,0,0,0,0]}],[{"header":{"parameterUnit":"m.s-1","parameterCategory":2,"la1":30.2991,"la2":30.254,"lo1":-89.0895,"lo2":-89.0444,"dy":0.0017,"dx":0.0017,"nx":28,"ny":28,"refTime":"2024-10-17T03:00:00:Z","depth":"4","parameterNumber":2,"parameterNumberName":"U-component_of_CURRENTS"},"data":[0,0,0,0,0,0,0,0,0,0,0,0,0,0,0,0,0,0,0,0,0,0,0,0,0,0,0,0,0,0,0,0,0,0,0,0,0,0,0,0,0,0,0,0,0,0,0,0,0,0,0,0,0,0,0,0,0,0,-0.1503,-0.1504,0,-0.1553,-0.1553,-0.1554,-0.1578,-0.1579,-0.1579,-0.1579,-0.161,-0.161,-0.1611,0,0,0,0,0,0,0,0,0,0,0,0,0,-0.1423,-0.1424,-0.1503,-0.1504,-0.1504,-0.1553,-0.1553,-0.1554,-0.1578,-0.1579,-0.1579,-0.1579,-0.1609,-0.161,-0.1611,0,0,0,0,0,0,0,0,0,0,0,0,0,-0.1462,-0.1424,-0.1503,-0.1524,-0.1526,-0.1553,-0.1553,-0.1554,-0.1578,-0.1579,-0.1579,-0.1579,-0.1609,-0.161,-0.1611,-0.1612,0,0,-0.1614,-0.1615,0,0,0,0,0,0,0,0,-0.146,-0.1465,-0.152,-0.1522,-0.1525,-0.1561,-0.1536,-0.1573,-0.1578,-0.1557,-0.1579,-0.1579,-0.1593,-0.1595,-0.1602,-0.1614,-0.1615,-0.1614,-0.1615,-0.1615,-0.1616,0,0,0,0,0,0,0,-0.1457,-0.1463,-0.1521,-0.1521,-0.1524,-0.1529,-0.1535,-0.1543,-0.1571,-0.1559,-0.1561,-0.1569,-0.1594,-0.1601,-0.1602,-0.1615,-0.1614,-0.1615,-0.1616,-0.1616,-0.169,-0.1692,0,0,0,0,0,0,-0.1455,-0.146,-0.1519,-0.1522,-0.1494,-0.153,-0.1537,-0.1548,-0.1571,-0.1576,-0.1569,-0.157,-0.1599,-0.1601,-0.1604,-0.167,-0.1615,-0.1616,-0.1617,-0.1689,-0.1691,-0.1692,0,0,0,0,0,0,-0.1453,-0.146,-0.1517,-0.1493,-0.1501,-0.1532,-0.1544,-0.1549,-0.1579,-0.158,-0.1584,-0.1597,-0.1599,-0.1602,-0.1637,-0.1668,-0.1617,-0.1617,-0.1687,-0.1689,-0.1691,-0.1761,0,0,0,0,0,0,-0.145,-0.1459,-0.1477,-0.1494,-0.1503,-0.1552,-0.1544,-0.155,-0.1583,-0.1586,-0.1605,-0.1606,-0.1599,-0.1635,-0.1638,-0.1669,-0.1618,-0.1686,-0.1688,-0.1691,-0.1757,-0.1765,-0.1772,0,0,0,0,0,-0.1447,-0.1469,-0.1478,-0.1486,-0.1524,-0.1553,-0.1559,-0.1579,-0.1584,-0.1605,-0.162,-0.1607,-0.1653,-0.1637,-0.164,-0.1672,-0.1684,-0.1688,-0.1691,-0.1753,-0.1763,-0.1772,0,0,0,0,0,0,-0.1445,-0.1474,-0.1484,-0.1514,-0.1541,-0.1559,-0.1583,-0.1594,-0.1622,-0.163,-0.1626,-0.163,-0.1671,-0.1662,-0.1645,-0.1701,-0.1666,-0.167,-0.1713,-0.1722,-0.173,-0.1726,-0.1619,0,0,0,0,0,-0.1453,-0.1477,-0.1503,-0.1531,-0.1547,-0.1569,-0.1588,-0.1603,-0.1625,-0.1638,-0.1653,-0.1667,-0.1681,-0.1695,-0.1706,-0.1738,-0.1726,-0.176,-0.1767,-0.1774,-0.1773,-0.1786,-0.1794,-0.1702,-0.1702,-0.1702,0,0,-0.146,-0.1479,-0.1495,-0.1532,-0.1554,-0.1586,-0.1582,-0.162,-0.1651,-0.1636,-0.169,-0.1696,-0.1696,-0.1733,-0.1751,-0.1734,-0.1796,-0.1778,-0.1783,-0.1779,-0.179,-0.1799,-0.1807,-0.1704,-0.1704,-0.1704,0,0,-0.1479,-0.1506,-0.1531,-0.1558,-0.1599,-0.1614,-0.1632,-0.1667,-0.1692,-0.1737,-0.1734,-0.1763,-0.179,-0.1798,-0.1802,-0.1858,-0.1835,-0.1864,-0.1902,-0.1916,-0.1923,-0.193,-0.1933,-0.194,-0.1868,-0.1869,-0.1869,0,-0.149,-0.1523,-0.1544,-0.1576,-0.1605,-0.1631,-0.1667,-0.1695,-0.1741,-0.1765,-0.1765,-0.1816,-0.1819,-0.1857,-0.1876,-0.1876,-0.1874,-0.1868,-0.1926,-0.1931,-0.1937,-0.1939,-0.1945,-0.1872,-0.1872,-0.1871,-0.1871,0,-0.1518,-0.1558,-0.1577,-0.1625,-0.1659,-0.1697,-0.1736,-0.1778,-0.1809,-0.1833,-0.1889,-0.1898,-0.1923,-0.1934,-0.1922,-0.1966,-0.1949,-0.1933,-0.1901,-0.195,-0.1949,-0.1954,-0.1878,-0.1876,-0.1875,-0.1874,0,0,-0.1507,-0.1583,-0.1593,-0.1626,-0.1691,-0.1718,-0.1781,-0.1837,-0.1878,-0.1923,-0.1973,-0.2003,-0.2008,-0.2011,-0.2008,-0.2021,-0.2061,-0.1997,-0.1996,-0.1999,-0.2087,-0.1957,-0.1949,-0.2056,-0.2057,-0.2058,-0.2074,0,-0.1526,-0.1588,-0.1627,-0.1696,-0.173,-0.1782,-0.1836,-0.1892,-0.1937,-0.1992,-0.2015,-0.2057,-0.2037,-0.2055,-0.2068,-0.2061,-0.2076,-0.2057,-0.204,-0.2039,-0.1916,-0.1951,-0.2061,-0.2077,-0.2078,-0.2079,-0.208,0,-0.1535,-0.1578,-0.1646,-0.1732,-0.1754,-0.1803,-0.189,-0.1941,-0.2018,-0.2054,-0.2098,-0.2114,-0.2149,-0.2122,-0.2139,-0.2128,-0.2114,-0.2105,-0.2105,-0.1958,-0.1917,-0.2016,-0.2088,-0.2087,-0.2086,-0.2086,-0.2085,0,-0.1498,-0.159,-0.1646,-0.1676,-0.1775,-0.1824,-0.1878,-0.1961,-0.2005,-0.2092,-0.2127,-0.2172,-0.2193,-0.2192,-0.2169,-0.2162,-0.2174,-0.216,-0.2033,-0.2024,-0.2106,-0.2099,-0.2173,-0.2173,-0.2173,-0.2172,-0.2172,0,-0.1485,-0.1534,-0.1638,-0.1667,-0.1736,-0.1815,-0.189,-0.1951,-0.2037,-0.2081,-0.2149,-0.2172,-0.2211,-0.2217,-0.2194,-0.2117,-0.2193,-0.2038,-0.2017,-0.2136,-0.2132,-0.211,-0.2102,-0.2173,-0.2173,-0.2173,-0.2173,0,-0.1426,-0.1501,-0.1566,-0.168,-0.1718,-0.1764,-0.1879,-0.1922,-0.2019,-0.2078,-0.2106,-0.2181,-0.2186,-0.2202,-0.2202,-0.2127,-0.2084,-0.204,-0.2168,-0.2155,-0.1923,-0.192,-0.1902,-0.1897,-0.1893,-0.189,-0.1887,0,-0.1398,-0.1426,-0.1549,-0.1585,-0.164,-0.1724,-0.1773,-0.1892,-0.193,-0.2057,-0.2063,-0.2122,-0.2152,-0.204,-0.2078,-0.2031,-0.2003,-0.1971,-0.1942,-0.1913,-0.1896,-0.1898,-0.1899,-0.1881,-0.188,-0.1879,-0.1878,0,-0.1329,-0.1385,-0.1434,-0.1501,-0.1565,-0.1627,-0.1708,-0.1722,-0.185,-0.1965,-0.1963,-0.196,-0.1965,-0.195,-0.1924,-0.1891,-0.1986,-0.1931,-0.1939,-0.1911,-0.1888,-0.1875,-0.1881,-0.1865,-0.1867,-0.1868,-0.1869,0,-0.1271,-0.1282,-0.1347,-0.1392,-0.1466,-0.1489,-0.1557,-0.1599,-0.1652,-0.1797,-0.1794,-0.1859,-0.1947,-0.1877,-0.1855,-0.181,-0.1782,-0.1716,-0.1734,-0.1749,-0.1689,-0.1638,-0.1517,0,0,0,0,0,-0.1198,-0.1194,-0.1229,-0.127,-0.1336,-0.1377,-0.1488,-0.156,-0.1692,-0.1643,-0.1713,-0.1712,-0.1688,-0.1722,-0.164,-0.1783,-0.1785,-0.1682,-0.1719,-0.1792,-0.1807,-0.1749,0,0,0,0,0,0,-0.1149,-0.1175,-0.1181,-0.1147,-0.1152,-0.121,-0.1274,-0.1374,-0.1357,-0.1498,-0.1487,-0.1602,-0.1595,-0.17,-0.16,-0.1611,-0.1598,-0.1735,-0.1731,-0.1783,-0.1797,-0.1809,-0.1755,0,0,0,0,0]},{"header":{"parameterUnit":"m.s-1","parameterCategory":2,"la1":30.2991,"la2":30.254,"lo1":-89.0895,"lo2":-89.0444,"dy":0.0017,"dx":0.0017,"nx":28,"ny":28,"refTime":"2024-10-17T03:00:00:Z","depth":"4","parameterNumber":3,"parameterNumberName":"V-component_of_CURRENTS"},"data":[0,0,0,0,0,0,0,0,0,0,0,0,0,0,0,0,0,0,0,0,0,0,0,0,0,0,0,0,0,0,0,0,0,0,0,0,0,0,0,0,0,0,0,0,0,0,0,0,0,0,0,0,0,0,0,0,0,0,-0.0099,-0.0098,0,-0.0054,-0.0053,-0.0052,-0.0025,-0.0025,-0.0025,-0.0025,0.0044,0.0046,0.0048,0,0,0,0,0,0,0,0,0,0,0,0,0,-0.0122,-0.0122,-0.0099,-0.0098,-0.0098,-0.0054,-0.0053,-0.0052,-0.0025,-0.0025,-0.0025,-0.0025,0.0043,0.0046,0.0048,0,0,0,0,0,0,0,0,0,0,0,0,0,-0.0097,-0.0122,-0.0099,-0.008,-0.0078,-0.0054,-0.0053,-0.0052,-0.0025,-0.0025,-0.0025,-0.0025,0.0043,0.0045,0.0048,0.0064,0,0,0.0056,0.0057,0,0,0,0,0,0,0,0,-0.0098,-0.0096,-0.0083,-0.0081,-0.0079,-0.0046,-0.0036,-0.0013,-0.0025,-0.0043,-0.0025,-0.0025,0.0015,0.002,0.003,0.0067,0.007,0.0057,0.0058,0.0059,0.006,0,0,0,0,0,0,0,-0.01,-0.0097,-0.008,-0.0083,-0.008,-0.006,-0.0057,-0.0031,-0.0013,-0.0042,-0.004,-0.0037,0.0017,0.0027,0.0032,0.0071,0.0056,0.0059,0.0061,0.0062,0.0139,0.0139,0,0,0,0,0,0,-0.011,-0.0099,-0.0081,-0.0078,-0.009,-0.006,-0.0056,-0.0055,-0.0014,-0.0008,-0.0037,-0.0036,0.0023,0.0029,0.0035,0.0057,0.0059,0.0062,0.0063,0.0138,0.0139,0.0139,0,0,0,0,0,0,-0.0111,-0.0109,-0.0083,-0.0089,-0.0084,-0.006,-0.0059,-0.0055,-0.0047,-0.0011,-0.0005,-0.0035,0.0023,0.0031,0.0057,0.006,0.0063,0.0066,0.0138,0.0138,0.0139,0.0101,0,0,0,0,0,0,-0.0112,-0.011,-0.0115,-0.0089,-0.0084,-0.0075,-0.0059,-0.0054,-0.0045,-0.0043,-0.0007,-0.0,0.0024,0.0053,0.006,0.0064,0.0068,0.0137,0.0138,0.0139,0.0102,0.01,0.0099,0,0,0,0,0,-0.0113,-0.0121,-0.0115,-0.0113,-0.0091,-0.0075,-0.007,-0.0052,-0.0045,-0.0044,-0.0016,-0.0001,0.0063,0.0056,0.0064,0.0068,0.0137,0.0138,0.0139,0.0102,0.0101,0.0099,0,0,0,0,0,0,-0.0134,-0.0119,-0.0112,-0.0115,-0.0099,-0.0071,-0.007,-0.0056,-0.0033,-0.0032,0.0003,0.0012,0.0036,0.0059,0.005,0.0094,0.0103,0.0106,0.0073,0.0072,0.007,0.0053,0.007,0,0,0,0,0,-0.0142,-0.0145,-0.0123,-0.0127,-0.0121,-0.0096,-0.0089,-0.0076,-0.0052,-0.0042,-0.0014,0.0017,0.0047,0.0063,0.0091,0.0114,0.0139,0.0124,0.0123,0.0121,0.0114,0.0158,0.016,0.0142,0.0142,0.0142,0,0,-0.0152,-0.0144,-0.0146,-0.0132,-0.0119,-0.0115,-0.0092,-0.0084,-0.0077,-0.0038,-0.002,0.0011,0.0052,0.0078,0.0091,0.0097,0.014,0.0122,0.0121,0.0114,0.016,0.0161,0.0163,0.0143,0.0143,0.0143,0,0,-0.0175,-0.0166,-0.0176,-0.0165,-0.0151,-0.0133,-0.0134,-0.0107,-0.0092,-0.0071,-0.0038,-0.0005,0.0036,0.007,0.0092,0.0101,0.013,0.011,0.0091,0.0135,0.0136,0.0138,0.0171,0.0175,0.0111,0.0111,0.0111,0,-0.0189,-0.0198,-0.0176,-0.0181,-0.0179,-0.0145,-0.0153,-0.013,-0.0096,-0.0083,-0.0072,-0.0001,0.0033,0.0074,0.0077,0.0097,0.0121,0.0091,0.0132,0.0134,0.0136,0.017,0.0175,0.011,0.011,0.011,0.011,0,-0.0215,-0.0223,-0.0228,-0.0224,-0.0215,-0.0218,-0.0186,-0.017,-0.0148,-0.0122,-0.0082,-0.0029,0.0013,0.0034,0.0056,0.0093,0.0104,0.0122,0.0131,0.0135,0.0171,0.0177,0.0107,0.0108,0.0108,0.0109,0,0,-0.0246,-0.0248,-0.0252,-0.0263,-0.0241,-0.024,-0.0222,-0.0199,-0.019,-0.0144,-0.0126,-0.0063,-0.0032,-0.0005,0.0038,0.0077,0.0117,0.0099,0.0103,0.0123,0.0205,0.0196,0.0203,0.014,0.0141,0.0142,0.0222,0,-0.0276,-0.0305,-0.0291,-0.0315,-0.0327,-0.0292,-0.0282,-0.0253,-0.0217,-0.0188,-0.0121,-0.0088,-0.0046,-0.0027,0.0021,0.0095,0.0133,0.0093,0.0205,0.0208,0.0193,0.021,0.0145,0.0227,0.0229,0.023,0.0231,0,-0.0307,-0.0324,-0.0357,-0.0369,-0.0371,-0.0376,-0.0357,-0.0341,-0.0282,-0.0254,-0.0198,-0.0146,-0.0073,-0.0045,0.0084,0.0055,0.012,0.0176,0.0181,0.0188,0.0212,0.0225,0.0243,0.0242,0.0242,0.0241,0.024,0,-0.0347,-0.0371,-0.0404,-0.0407,-0.0408,-0.0416,-0.0411,-0.0366,-0.0357,-0.0294,-0.0278,-0.0181,-0.0135,-0.0034,0.009,0.0086,0.0225,0.0239,0.0293,0.0293,0.0292,0.029,0.0318,0.0318,0.0318,0.0318,0.0318,0,-0.0383,-0.0411,-0.0431,-0.045,-0.0489,-0.0468,-0.0488,-0.0461,-0.0425,-0.0414,-0.0319,-0.0284,-0.0132,-0.003,0.0078,0.0209,0.0223,0.0289,0.0315,0.0275,0.027,0.0297,0.0294,0.0321,0.032,0.032,0.0319,0,-0.0418,-0.043,-0.0475,-0.0499,-0.0511,-0.0539,-0.0554,-0.0561,-0.0515,-0.0495,-0.0479,-0.0359,-0.022,-0.0065,0.0107,0.0188,0.0317,0.0355,0.0296,0.0318,0.0356,0.035,0.0422,0.0422,0.0422,0.0423,0.0423,0,-0.0437,-0.0464,-0.052,-0.0558,-0.0575,-0.0612,-0.0636,-0.0612,-0.0611,-0.0537,-0.0529,-0.0398,-0.0301,-0.0061,0.0098,0.0309,0.0333,0.0392,0.0377,0.035,0.0368,0.0361,0.0355,0.0423,0.0424,0.0424,0.0424,0,-0.0473,-0.0496,-0.0533,-0.0612,-0.0659,-0.0703,-0.073,-0.0738,-0.0694,-0.0658,-0.0561,-0.0422,-0.0267,-0.0071,0.0095,0.0244,0.0354,0.0396,0.0397,0.0383,0.0353,0.0369,0.0362,0.0425,0.0425,0.0425,0.0425,0,-0.0496,-0.0535,-0.059,-0.0655,-0.0722,-0.077,-0.0781,-0.0766,-0.0753,-0.0659,-0.063,-0.0444,-0.0331,-0.0105,0.0048,0.0198,0.023,0.0264,0.0272,0.0273,0.0206,0.0145,0.0175,0,0,0,0,0,-0.0513,-0.0559,-0.0629,-0.0697,-0.0765,-0.08,-0.083,-0.0825,-0.0785,-0.0725,-0.0672,-0.052,-0.0272,-0.0162,-0.0014,0.0043,0.0245,0.0218,0.0285,0.0431,0.043,0.0377,0,0,0,0,0,0,-0.0526,-0.0592,-0.0629,-0.0716,-0.077,-0.0835,-0.0859,-0.0835,-0.0789,-0.0727,-0.0594,-0.05,-0.026,-0.0356,-0.0016,0.0031,0.0089,0.0344,0.0346,0.0432,0.0431,0.043,0.0375,0,0,0,0,0]}]]